Orbital Elements at Epoch 2459200.5 (2020-Dec-17.0) TDB
Reference: JPL 15 (heliocentric ecliptic J2000)
Element | Value | Uncertainty (1-sigma) | Units |
e | .131880881570765 | 5.1624e-08 | |
a | 2.443867173283163 | 1.7123e-08 | au |
q | 2.121567816028726 | 1.2898e-07 | au |
i | 1.849005924757295 | 5.3427e-06 | deg |
node | 225.9197047608507 | 0.00015661 | deg |
peri | 343.3231446919421 | 0.00015758 | deg |
M | 96.0752866371863 | 2.0394e-05 | deg |
tp | 2458828.087703994303 (2019-Dec-10.58770399) | 7.6946e-05 | TDB |
period | 1395.451746798735 3.82 | 1.4666e-05 4.015e-08 | d yr |
n | .2579809734201599 | 2.7113e-09 | deg/d |
Q | 2.766166530537601 | 1.9381e-08 | au |
|
| | Orbit Determination Parameters
Additional Information
|